TimeCDT,TemperatureF,Dew PointF,Humidity,Sea Level PressureIn,VisibilityMPH,Wind Direction,Wind SpeedMPH,Gust SpeedMPH,PrecipitationIn,Events,Conditions,WindDirDegrees,DateUTC
12:55 AM,59.4,55.4,87,29.72,10.0,NW,6.9,-,N/A,,Partly Cloudy,320,2011-10-13 05:55:00
1:55 AM,56.7,52.3,85,29.72,10.0,NW,5.8,-,N/A,,Partly Cloudy,320,2011-10-13 06:55:00
2:55 AM,55.0,52.7,92,29.73,10.0,West,6.9,-,N/A,,Scattered Clouds,280,2011-10-13 07:55:00
3:55 AM,55.6,52.2,88,29.72,10.0,WNW,9.2,-,N/A,,Clear,290,2011-10-13 08:55:00
4:55 AM,56.3,50.5,81,29.73,10.0,WNW,11.5,-,N/A,,Clear,300,2011-10-13 09:55:00
5:55 AM,55.4,49.5,80,29.75,10.0,WNW,9.2,-,N/A,,Clear,300,2011-10-13 10:55:00
6:55 AM,54.5,48.2,79,29.76,10.0,WNW,11.5,-,N/A,,Clear,300,2011-10-13 11:55:00
7:55 AM,54.0,46.9,77,29.77,10.0,WNW,9.2,-,N/A,,Clear,290,2011-10-13 12:55:00
8:55 AM,57.7,46.2,65,29.79,10.0,WNW,10.4,-,N/A,,Clear,300,2011-10-13 13:55:00
9:55 AM,62.2,45.3,54,29.80,10.0,WNW,12.7,-,N/A,,Clear,300,2011-10-13 14:55:00
10:55 AM,66.4,45.3,47,29.81,10.0,NW,11.5,21.9,N/A,,Clear,320,2011-10-13 15:55:00
11:55 AM,70.2,43.5,38,29.79,10.0,WNW,17.3,-,N/A,,Clear,300,2011-10-13 16:55:00
12:55 PM,72.3,41.4,33,29.79,10.0,NNW,15.0,-,N/A,,Clear,340,2011-10-13 17:55:00
1:55 PM,73.8,39.9,29,29.77,10.0,WNW,17.3,24.2,N/A,,Clear,300,2011-10-13 18:55:00
2:55 PM,74.3,40.1,29,29.76,10.0,WNW,19.6,31.1,N/A,,Clear,300,2011-10-13 19:55:00
3:55 PM,74.3,34.7,24,29.75,10.0,WNW,18.4,29.9,N/A,,Clear,300,2011-10-13 20:55:00
4:08 PM,75.2,35.6,24,29.75,10.0,NW,16.1,23.0,N/A,,Clear,310,2011-10-13 21:08:00
4:55 PM,73.4,34.7,24,29.76,10.0,NNW,23.0,27.6,N/A,,Clear,330,2011-10-13 21:55:00
5:55 PM,71.6,35.6,27,29.76,10.0,NW,13.8,-,N/A,,Clear,310,2011-10-13 22:55:00
6:55 PM,66.9,34.0,30,29.77,10.0,NW,8.1,-,N/A,,Clear,310,2011-10-13 23:55:00
7:55 PM,62.1,35.2,37,29.79,10.0,West,4.6,-,N/A,,Clear,260,2011-10-14 00:55:00
8:55 PM,59.5,35.4,41,29.80,10.0,WSW,5.8,-,N/A,,Clear,250,2011-10-14 01:55:00
9:55 PM,57.2,36.0,45,29.81,10.0,SW,6.9,-,N/A,,Clear,230,2011-10-14 02:55:00
10:55 PM,55.4,36.7,49,29.81,10.0,WSW,5.8,-,N/A,,Clear,240,2011-10-14 03:55:00
11:55 PM,54.9,36.3,50,29.81,10.0,WSW,8.1,-,N/A,,Clear,240,2011-10-14 04:55:00